Wind_Speed
2 2 2 2 3 3 3 3 3 3 3 4 4 4 4 5 5 6 6 6 6 6 7 7 7 7 7 6 6 6 5 5 4 4 4 5 5 6 5 5 5 6 6 6 6 6 7 7 8
1 1 2 2 3 3 3 4 4 3 3 4 4 5 5 5 6 7 7 7 7 8 8 8 8 8 8 7 7 7 7 6 5 5 5 5 6 6 6 6 6 7 7 7 7 7 7 8 9
2 2 2 3 3 4 4 5 4 4 5 5 5 5 6 6 7 7 8 8 8 8 9 9 9 9 9 9 9 9 8 7 6 6 5 5 5 6 7 7 7 7 7 7 7 7 7 8 8
3 4 4 4 5 5 6 6 5 6 6 7 7 7 7 7 8 8 9 9 9 9 10 9 10 9 10 10 9 10 9 8 8 7 6 6 6 6 7 8 7 8 8 7 7 7 8 8 9
5 5 5 5 6 6 7 7 7 7 7 8 8 8 8 8 9 9 9 10 9 9 10 10 10 11 11 11 10 9 9 9 9 8 7 7 7 8 8 9 8 8 8 8 8 8 8 8 9
6 6 6 6 7 7 8 8 8 8 8 9 9 9 9 9 9 10 10 10 10 10 10 10 11 11 11 11 11 10 9 9 8 8 8 8 8 8 8 8 8 7 7 8 8 8 8 8 8
7 7 7 7 8 8 9 9 9 9 9 10 10 9 9 9 10 10 10 11 10 11 11 11 11 11 10 10 10 10 10 9 8 8 8 8 8 8 8 7 7 7 7 7 8 7 8 8 8
8 8 9 9 9 9 10 10 10 11 11 11 11 11 10 10 11 11 11 11 11 11 11 11 11 10 10 10 10 10 10 9 9 9 8 8 8 8 8 7 7 7 7 7 7 7 7 8 7
9 10 10 10 11 10 11 10 11 11 12 12 12 11 11 11 11 12 11 11 12 11 11 10 10 10 10 10 10 9 9 9 9 9 8 8 7 7 7 7 6 6 7 7 6 7 7 7 7
11 11 11 11 12 11 12 11 11 12 13 12 12 12 12 12 12 12 12 11 11 11 10 10 10 10 10 10 9 9 8 8 8 9 8 7 7 6 6 6 6 6 6 6 6 6 6 6 6
12 12 11 12 12 12 12 12 13 13 13 13 12 12 12 12 13 13 12 12 11 10 10 10 10 9 9 9 9 9 8 8 8 8 7 6 6 6 6 6 6 5 6 5 5 5 5 5 5
13 12 12 12 12 13 13 13 13 14 14 14 13 13 13 12 13 13 12 11 11 11 10 10 10 9 9 8 8 9 8 8 8 8 7 6 6 6 6 5 5 5 5 5 4 4 4 4 5
12 13 13 13 13 14 14 14 14 14 14 14 14 13 13 12 12 12 12 11 11 11 11 10 10 8 8 8 8 8 8 8 8 7 7 6 5 6 5 4 4 4 4 4 4 3 3 4 4
12 12 12 13 13 14 14 14 14 14 14 14 14 14 13 12 12 12 11 11 11 11 11 10 9 8 8 8 7 7 7 8 8 7 6 6 5 5 4 2 2 3 3 3 3 2 3 4 4
12 13 13 13 13 13 14 14 14 14 14 14 14 14 13 12 12 12 12 12 11 11 10 10 10 8 8 8 7 7 6 7 6 6 5 5 4 3 2 1 2 2 2 2 3 3 2 3 3
13 14 14 13 14 14 15 15 14 14 14 14 14 13 13 13 13 12 12 12 11 11 10 10 9 8 8 8 7 7 7 6 5 5 4 3 2 2 1 1 1 1 2 2 3 2 2 3 3
13 13 14 15 14 14 15 15 14 14 14 14 14 13 13 13 13 12 12 12 11 11 10 10 9 8 7 7 7 7 7 6 5 4 3 3 2 1 1 1 1 1 1 2 2 2 2 2 3
13 14 14 15 15 15 15 15 15 15 15 14 14 14 14 14 13 12 12 12 12 12 11 10 9 8 7 6 6 7 6 5 5 4 4 3 2 1 1 0 0 1 1 1 2 2 2 2 2
13 13 14 15 15 15 15 15 15 15 14 14 14 15 15 15 14 13 13 13 12 12 11 10 10 8 7 7 6 6 6 5 5 4 3 2 2 2 1 1 1 1 1 1 2 2 2 2 2
13 13 14 15 15 15 15 15 15 15 15 15 15 15 15 14 14 14 13 13 13 12 12 11 10 10 9 8 8 7 6 6 5 5 3 2 2 2 2 1 0 0 1 1 1 2 2 2 2
14 14 15 15 16 15 15 15 15 15 15 15 15 16 16 15 15 14 14 13 13 13 12 12 11 11 10 9 8 7 6 6 5 4 4 3 3 2 2 1 1 1 1 1 2 2 2 2 2
14 14 15 15 16 15 15 15 15 15 15 15 15 16 16 16 16 15 14 14 14 14 13 13 12 11 10 10 9 8 7 6 5 5 4 4 3 3 2 2 1 1 0 0 1 1 2 2 2
15 15 15 16 16 16 15 16 15 16 15 16 16 16 16 16 17 15 15 15 14 14 14 13 12 11 11 10 10 10 9 7 6 5 5 4 3 3 2 2 1 1 1 1 1 1 1 1 2
15 16 16 16 16 16 15 16 16 16 16 16 16 16 16 16 16 16 15 15 15 14 14 13 12 12 12 11 10 10 9 8 7 6 6 5 4 3 3 3 2 2 1 1 1 1 1 1 2
16 16 16 15 15 16 15 17 16 17 16 17 17 16 16 16 16 16 15 15 15 14 14 13 13 12 12 11 10 10 10 9 8 7 6 6 5 4 4 3 2 2 1 1 1 1 2 2 2
16 16 16 15 15 15 15 16 17 17 17 17 17 16 16 16 16 15 15 14 14 13 13 13 13 12 12 11 10 10 11 10 9 8 7 6 6 5 4 3 2 2 1 1 1 2 2 2 2
17 17 16 17 16 15 14 16 18 18 17 17 16 16 16 15 15 15 14 14 14 13 13 13 12 12 11 11 11 11 11 11 10 10 9 8 7 6 5 4 3 3 2 2 1 1 1 2 2
18 17 17 17 17 16 15 17 19 18 17 16 16 16 15 15 14 14 13 13 13 12 12 11 11 11 11 12 12 11 10 10 11 10 10 9 8 7 7 6 5 4 3 2 2 2 2 2 2
18 18 18 19 18 18 17 17 17 17 16 16 15 15 15 14 14 14 13 13 12 12 12 12 12 11 11 12 12 11 10 10 10 10 10 10 9 8 8 7 6 5 4 3 4 4 3 3 4
19 19 19 19 18 18 19 19 17 17 17 16 16 15 15 14 14 13 13 12 11 12 12 12 11 11 12 12 12 12 10 10 9 10 11 11 9 9 8 8 7 6 5 5 4 4 4 5 5
Wind_Direction
39 38 28 22 14 1 352 335 326 332 324 314 301 299 297 299 303 296 286 277 274 273 273 274 272 269 275 282 280 279 276 266 271 273 271 273 270 264 273 283 276 278 280 278 275 271 267 263 262
351 338 330 337 332 331 329 316 316 322 319 308 302 301 301 300 302 298 289 282 276 277 274 273 273 271 273 277 280 281 279 269 273 276 274 277 274 270 270 277 280 280 281 280 280 279 274 271 267
312 305 302 302 298 299 300 301 300 303 306 303 300 298 299 300 300 298 291 285 281 280 277 271 270 271 273 277 280 277 276 271 270 274 275 274 275 276 277 277 278 278 280 281 283 285 282 279 277
293 291 290 285 288 292 293 294 293 294 297 299 300 299 298 297 298 297 291 286 284 281 278 274 274 272 274 277 280 278 275 272 272 271 274 274 283 290 290 283 281 283 283 282 283 285 281 278 278
284 283 284 285 287 289 296 293 290 294 295 296 296 295 295 297 298 297 294 290 287 284 282 277 277 278 277 279 280 277 273 275 277 274 275 278 290 296 292 288 287 286 286 282 285 286 281 278 277
281 279 281 285 287 287 288 289 290 292 292 295 294 291 290 294 296 297 295 290 288 286 283 281 280 280 279 277 278 278 272 271 273 277 277 284 293 296 293 292 292 292 291 290 291 289 286 282 278
279 278 278 282 281 284 285 287 288 287 286 288 291 290 289 291 294 296 295 291 287 287 283 282 280 280 281 281 278 276 276 274 274 276 278 282 287 291 293 289 292 291 293 294 292 287 288 285 284
276 277 277 279 280 283 286 285 284 284 284 285 288 289 289 290 294 295 293 291 288 287 284 281 279 280 283 283 284 278 277 276 276 276 279 283 288 292 289 288 289 294 298 296 290 287 293 292 290
272 271 274 279 283 283 286 287 285 284 285 284 285 288 291 291 291 293 293 290 289 288 284 282 280 280 284 284 285 277 273 272 277 279 279 283 291 295 292 290 290 296 299 296 295 294 291 293 294
269 269 272 278 283 283 284 285 287 285 286 287 288 289 291 293 293 293 293 292 290 286 284 283 281 281 283 285 287 279 270 269 275 277 281 286 290 291 288 290 291 295 298 297 300 293 293 295 297
265 268 274 279 280 281 283 284 285 285 286 290 293 294 293 292 294 294 294 291 289 287 285 281 281 282 283 285 284 276 268 274 278 274 275 282 283 285 289 293 289 295 302 302 300 299 299 304 305
265 268 271 276 279 279 281 283 283 285 288 290 293 296 296 296 294 295 293 291 287 285 286 285 284 284 283 285 284 277 270 274 281 277 271 279 283 284 285 288 284 293 307 308 303 308 307 307 308
264 268 271 274 277 278 280 282 283 283 285 288 289 293 295 295 294 294 293 290 285 284 288 287 285 284 283 282 282 277 272 272 275 277 274 277 279 280 284 280 280 296 310 313 307 310 312 310 310
266 269 273 275 277 278 280 282 283 283 284 286 287 291 293 294 293 293 292 292 287 285 286 283 280 277 281 280 275 278 276 274 275 284 283 276 278 276 271 267 279 294 310 318 321 312 311 316 314
268 270 271 273 277 280 281 282 284 284 284 286 288 289 291 292 294 294 291 289 289 285 282 282 281 277 276 273 271 274 277 277 274 275 278 281 283 284 269 281 296 302 324 342 344 342 338 335 326
269 271 274 274 278 280 282 282 285 285 285 285 286 288 288 290 293 292 293 291 291 287 282 280 280 278 278 274 267 273 276 273 269 265 276 280 275 281 262 297 321 325 339 344 339 334 333 328 330
270 274 277 279 279 282 282 283 285 285 284 285 286 286 288 289 289 290 290 290 289 286 285 282 280 281 278 276 268 268 272 266 257 254 269 268 264 276 247 260 316 332 338 339 330 331 346 342 346
270 275 278 280 283 285 284 282 281 282 284 286 287 286 288 289 288 286 287 288 287 287 286 283 278 278 273 268 266 265 263 261 248 258 272 255 229 213 210 191 5 358 356 358 355 350 11 14 10
271 272 277 280 283 285 285 283 283 282 282 285 286 287 287 285 285 284 284 285 285 285 284 281 271 269 269 266 269 261 257 253 246 254 248 221 201 191 185 142 55 43 35 29 26 20 32 30 30
270 272 275 278 282 284 284 284 283 284 284 285 285 284 283 281 279 280 281 279 277 279 279 276 270 263 264 263 260 258 258 250 244 235 226 211 191 187 182 161 121 91 70 64 40 32 35 33 32
270 273 275 278 282 282 283 283 284 283 283 284 284 285 284 280 279 278 277 276 273 273 274 271 267 260 260 257 253 250 252 241 234 224 217 204 195 187 187 180 149 124 82 73 59 48 44 40 31
269 271 274 276 278 282 283 284 285 285 283 283 282 283 282 280 278 277 275 273 272 270 269 268 265 260 256 254 251 249 244 235 229 223 220 209 201 199 204 209 196 187 162 27 33 40 39 26 20
268 272 272 274 276 279 281 282 287 285 285 285 285 284 283 282 279 276 274 271 269 267 266 265 260 257 256 255 250 241 235 230 226 222 220 214 208 209 217 219 219 241 255 276 296 304 319 321 325
267 269 270 271 274 278 280 280 282 286 288 288 287 286 283 279 278 276 273 271 267 263 262 260 257 256 255 252 249 234 229 228 225 221 220 218 214 216 223 224 230 245 251 271 298 315 321 321 322
264 266 268 271 274 280 281 279 281 284 287 288 287 286 283 278 275 274 273 269 265 262 260 257 257 255 253 249 240 229 227 228 226 223 224 223 219 218 222 230 234 235 262 273 293 328 335 327 329
263 263 264 269 274 276 276 276 280 284 287 288 286 283 282 278 276 273 271 267 264 262 259 254 252 251 246 238 232 230 225 226 225 226 227 227 222 220 223 226 232 243 264 271 284 304 330 327 332
259 259 262 263 266 266 273 278 281 284 289 288 284 281 280 277 275 273 269 267 263 261 258 252 246 245 239 230 229 229 226 224 225 228 228 228 227 226 227 231 238 246 262 276 274 307 317 318 318
256 257 258 259 261 263 264 272 282 284 285 284 283 281 279 278 273 270 268 266 262 257 252 248 240 240 233 226 223 224 226 225 227 227 226 224 224 227 229 233 242 252 260 260 254 268 278 305 311
255 256 257 258 261 263 265 270 276 281 284 282 281 279 277 276 272 269 269 266 260 251 247 246 238 233 230 225 223 226 228 227 228 225 222 223 226 230 234 233 237 244 250 256 257 260 269 282 294
257 256 256 257 258 260 263 267 274 278 280 279 279 278 276 271 268 268 266 262 256 249 246 240 233 230 225 225 224 226 227 226 230 230 226 224 227 231 232 232 237 243 247 251 254 263 273 279 289
Height
5887 5887 5887 5888 5888 5888 5887 5887 5886 5886 5887 5886 5886 5886 5886 5887 5887 5889 5887 5885 5885 5885 5885 5885 5885 5885 5885 5884 5884 5884 5884 5883 5883 5883 5883 5883 5883 5883 5883 5884 5883 5883 5883 5883 5883 5883 5883 5883 5884
5887 5887 5888 5888 5888 5887 5887 5886 5886 5886 5886 5886 5886 5886 5886 5886 5886 5885 5884 5884 5884 5884 5884 5884 5884 5884 5883 5883 5883 5883 5883 5882 5882 5882 5882 5882 5882 5882 5882 5882 5882 5882 5882 5882 5882 5881 5882 5882 5882
5887 5887 5888 5888 5887 5886 5886 5886 5886 5886 5885 5885 5885 5886 5886 5885 5885 5884 5883 5883 5883 5883 5882 5882 5882 5882 5882 5882 5882 5882 5882 5881 5881 5881 5881 5881 5881 5881 5881 5881 5881 5881 5881 5881 5880 5880 5880 5880 5880
5886 5887 5888 5888 5886 5885 5885 5885 5885 5885 5885 5885 5885 5885 5884 5884 5884 5883 5883 5882 5882 5882 5881 5881 5881 5881 5881 5880 5880 5880 5880 5880 5880 5880 5880 5880 5880 5880 5880 5879 5879 5879 5879 5879 5879 5878 5878 5878 5878
5886 5886 5887 5886 5885 5885 5884 5884 5884 5884 5884 5884 5884 5884 5883 5883 5883 5882 5881 5881 5881 5880 5880 5880 5879 5879 5879 5879 5879 5879 5879 5879 5878 5878 5879 5879 5879 5878 5878 5878 5877 5877 5877 5877 5877 5877 5876 5876 5876
5885 5885 5886 5884 5884 5884 5884 5883 5883 5883 5883 5883 5883 5883 5882 5882 5881 5881 5880 5880 5879 5879 5878 5878 5878 5877 5877 5877 5877 5877 5877 5877 5877 5877 5877 5877 5877 5877 5876 5876 5876 5876 5876 5875 5875 5875 5874 5874 5874
5885 5884 5884 5883 5883 5883 5883 5882 5882 5882 5882 5881 5881 5881 5880 5880 5880 5879 5879 5878 5878 5877 5877 5876 5876 5875 5875 5875 5875 5875 5875 5875 5875 5875 5876 5876 5875 5875 5875 5875 5874 5874 5874 5874 5873 5873 5873 5873 5872
5882 5883 5882 5882 5882 5881 5881 5881 5881 5880 5880 5880 5879 5879 5879 5879 5878 5878 5877 5876 5876 5875 5875 5875 5874 5874 5874 5873 5873 5873 5873 5874 5874 5874 5874 5874 5874 5874 5873 5873 5873 5873 5872 5872 5872 5871 5871 5871 5870
5881 5882 5881 5880 5880 5880 5880 5879 5879 5879 5878 5878 5877 5878 5877 5877 5877 5876 5875 5875 5874 5873 5873 5872 5872 5872 5872 5872 5872 5871 5872 5872 5872 5872 5872 5872 5872 5872 5872 5872 5871 5871 5871 5870 5870 5870 5869 5869 5869
5879 5879 5879 5879 5879 5878 5878 5878 5878 5877 5877 5876 5876 5876 5875 5875 5874 5874 5873 5873 5872 5872 5871 5871 5871 5870 5870 5870 5870 5870 5870 5870 5870 5871 5871 5871 5871 5871 5870 5870 5870 5870 5869 5869 5868 5868 5868 5867 5867
5877 5877 5877 5877 5877 5877 5876 5876 5876 5875 5875 5875 5874 5874 5874 5873 5873 5872 5871 5871 5870 5870 5869 5869 5869 5869 5868 5868 5868 5868 5868 5869 5869 5869 5869 5869 5869 5869 5869 5869 5869 5868 5868 5867 5867 5866 5866 5866 5866
5875 5875 5875 5875 5875 5875 5874 5874 5874 5874 5873 5873 5872 5872 5872 5871 5871 5870 5869 5869 5868 5868 5867 5867 5867 5867 5867 5867 5866 5866 5867 5867 5868 5868 5868 5868 5868 5868 5868 5868 5867 5867 5867 5866 5866 5865 5865 5865 5865
5873 5873 5873 5873 5873 5873 5872 5872 5872 5872 5871 5871 5871 5870 5870 5869 5868 5868 5867 5867 5866 5866 5866 5865 5865 5865 5865 5865 5865 5865 5865 5866 5866 5866 5866 5866 5866 5866 5866 5866 5866 5866 5865 5865 5865 5864 5864 5864 5864
5870 5870 5870 5870 5871 5870 5870 5870 5870 5870 5869 5869 5869 5868 5868 5867 5866 5866 5865 5865 5864 5864 5864 5864 5864 5864 5864 5864 5864 5864 5864 5864 5865 5865 5865 5865 5865 5865 5865 5865 5865 5865 5865 5864 5864 5864 5864 5863 5863
5867 5868 5868 5868 5868 5868 5868 5868 5868 5867 5867 5867 5866 5866 5866 5865 5864 5864 5863 5863 5863 5862 5862 5862 5862 5862 5862 5862 5863 5863 5863 5863 5863 5864 5864 5864 5864 5864 5864 5864 5864 5864 5864 5864 5863 5863 5863 5863 5862
5865 5866 5866 5866 5866 5865 5867 5866 5866 5865 5865 5864 5864 5864 5863 5863 5862 5862 5861 5861 5861 5860 5860 5860 5861 5861 5861 5861 5861 5862 5862 5862 5862 5862 5863 5863 5863 5863 5863 5863 5864 5864 5863 5863 5863 5863 5863 5862 5862
5863 5863 5863 5863 5863 5863 5863 5863 5863 5862 5862 5862 5861 5861 5861 5860 5860 5860 5859 5859 5859 5859 5859 5859 5859 5859 5859 5860 5860 5860 5861 5861 5861 5862 5862 5862 5862 5862 5863 5863 5863 5863 5863 5863 5863 5862 5862 5862 5862
5861 5860 5860 5860 5860 5860 5860 5860 5860 5860 5859 5859 5859 5858 5858 5858 5857 5857 5857 5857 5857 5857 5857 5857 5857 5858 5858 5858 5859 5859 5859 5860 5860 5861 5861 5861 5861 5862 5862 5862 5862 5863 5863 5863 5862 5862 5862 5862 5862
5858 5858 5858 5858 5857 5858 5857 5857 5857 5857 5857 5857 5856 5856 5855 5855 5855 5854 5854 5855 5855 5855 5855 5855 5856 5856 5857 5857 5857 5858 5858 5859 5859 5860 5860 5860 5861 5861 5862 5862 5862 5862 5863 5862 5862 5862 5862 5862 5861
5855 5855 5855 5855 5855 5855 5855 5855 5854 5854 5854 5854 5853 5853 5853 5853 5852 5852 5852 5852 5853 5853 5853 5853 5854 5855 5855 5856 5856 5857 5857 5858 5859 5859 5860 5860 5861 5861 5862 5862 5862 5863 5863 5862 5863 5862 5862 5862 5862
5853 5853 5853 5853 5852 5852 5852 5852 5852 5851 5851 5851 5850 5850 5850 5849 5849 5849 5849 5849 5850 5850 5851 5851 5852 5852 5853 5854 5855 5855 5856 5857 5858 5859 5859 5860 5861 5861 5862 5862 5862 5863 5863 5863 5863 5863 5862 5862 5862
5850 5850 5850 5850 5850 5849 5850 5849 5849 5848 5848 5848 5848 5847 5847 5846 5846 5846 5846 5847 5847 5848 5848 5849 5849 5850 5851 5852 5853 5854 5855 5856 5857 5858 5859 5860 5860 5861 5861 5862 5862 5863 5863 5863 5863 5863 5863 5863 5863
5847 5847 5847 5847 5847 5847 5847 5846 5847 5845 5845 5845 5844 5844 5844 5843 5843 5843 5844 5844 5844 5845 5845 5846 5847 5848 5849 5850 5851 5852 5854 5855 5856 5857 5858 5859 5860 5861 5861 5862 5862 5863 5863 5863 5863 5863 5862 5863 5863
5843 5844 5844 5844 5844 5844 5844 5844 5843 5842 5842 5841 5841 5841 5841 5840 5840 5840 5841 5841 5841 5842 5843 5843 5845 5846 5846 5848 5849 5851 5852 5854 5855 5856 5858 5859 5859 5860 5861 5862 5862 5862 5863 5863 5863 5862 5862 5862 5862
5840 5841 5841 5841 5841 5841 5841 5840 5841 5839 5839 5838 5838 5838 5837 5837 5837 5837 5837 5838 5838 5839 5840 5841 5842 5843 5844 5846 5847 5849 5851 5853 5854 5855 5857 5858 5859 5860 5861 5861 5862 5862 5862 5862 5862 5862 5862 5862 5862
5836 5837 5838 5839 5838 5838 5837 5837 5837 5836 5836 5835 5835 5834 5834 5834 5834 5834 5834 5835 5835 5836 5837 5838 5839 5840 5842 5844 5845 5847 5849 5851 5853 5854 5856 5857 5858 5859 5860 5861 5861 5861 5862 5862 5862 5862 5862 5862 5862
5832 5832 5834 5834 5834 5834 5834 5834 5833 5833 5832 5832 5831 5831 5831 5830 5831 5831 5831 5831 5832 5833 5834 5835 5837 5838 5840 5842 5844 5846 5847 5849 5851 5853 5854 5856 5857 5858 5859 5860 5860 5861 5861 5861 5861 5862 5862 5862 5862
5828 5829 5829 5830 5830 5831 5832 5831 5830 5829 5829 5828 5828 5827 5827 5827 5827 5828 5828 5829 5829 5830 5831 5833 5834 5836 5838 5840 5842 5844 5845 5847 5849 5851 5852 5854 5856 5857 5858 5859 5860 5860 5860 5861 5861 5861 5861 5861 5861
5824 5824 5825 5826 5826 5827 5827 5829 5827 5825 5825 5825 5824 5824 5824 5824 5824 5825 5825 5826 5827 5828 5829 5830 5832 5834 5836 5838 5840 5842 5844 5846 5847 5849 5851 5852 5854 5855 5857 5857 5858 5859 5860 5860 5860 5861 5861 5861 5861
5818 5820 5821 5822 5822 5823 5823 5826 5823 5822 5822 5821 5821 5821 5821 5821 5821 5822 5822 5823 5824 5825 5826 5828 5829 5831 5833 5835 5837 5840 5842 5844 5845 5847 5849 5851 5852 5854 5855 5856 5857 5858 5859 5859 5860 5860 5860 5860 5860